TimeCST,TemperatureF,Dew PointF,Humidity,Sea Level PressureIn,VisibilityMPH,Wind Direction,Wind SpeedMPH,Gust SpeedMPH,PrecipitationIn,Events,Conditions,WindDirDegrees,DateUTC
12:15 AM,40.1,36.0,85,30.44,10.0,Calm,Calm,-,N/A,,Overcast,0,2013-01-04 06:15:00
12:35 AM,40.1,36.0,85,30.44,10.0,Calm,Calm,-,N/A,,Overcast,0,2013-01-04 06:35:00
12:55 AM,41.4,33.1,72,30.43,10.0,Calm,Calm,-,N/A,,Overcast,0,2013-01-04 06:55:00
1:15 AM,41.5,33.4,73,30.44,10.0,Calm,Calm,-,N/A,,Overcast,0,2013-01-04 07:15:00
1:35 AM,41.2,33.3,73,30.45,10.0,Calm,Calm,-,N/A,,Overcast,0,2013-01-04 07:35:00
1:55 AM,41.0,33.3,74,30.44,10.0,Calm,Calm,-,N/A,,Overcast,0,2013-01-04 07:55:00
2:15 AM,41.2,33.8,75,30.44,10.0,Calm,Calm,-,N/A,,Overcast,0,2013-01-04 08:15:00
2:55 AM,40.3,33.1,75,30.43,10.0,East,3.5,-,N/A,,Mostly Cloudy,80,2013-01-04 08:55:00
3:15 AM,39.4,32.9,78,30.43,10.0,Calm,Calm,-,N/A,,Scattered Clouds,0,2013-01-04 09:15:00
5:35 AM,38.5,34.9,87,30.46,10.0,Calm,Calm,-,N/A,,Overcast,0,2013-01-04 11:35:00
5:55 AM,38.8,34.9,86,30.47,10.0,Calm,Calm,-,N/A,,Overcast,0,2013-01-04 11:55:00
6:15 AM,38.5,34.9,87,30.47,10.0,North,3.5,-,N/A,,Overcast,350,2013-01-04 12:15:00
6:35 AM,38.3,35.2,89,30.47,10.0,North,3.5,-,N/A,,Overcast,360,2013-01-04 12:35:00
6:55 AM,37.4,34.7,90,30.49,10.0,Calm,Calm,-,N/A,,Mostly Cloudy,0,2013-01-04 12:55:00
7:15 AM,36.7,34.3,91,30.50,10.0,Calm,Calm,-,N/A,,Scattered Clouds,0,2013-01-04 13:15:00
7:35 AM,37.4,34.7,90,30.50,10.0,Calm,Calm,-,N/A,,Overcast,0,2013-01-04 13:35:00
7:55 AM,37.8,34.9,89,30.50,10.0,North,3.5,-,N/A,,Overcast,360,2013-01-04 13:55:00
8:15 AM,38.3,34.9,87,30.50,10.0,Calm,Calm,-,N/A,,Scattered Clouds,0,2013-01-04 14:15:00
8:35 AM,38.5,34.7,86,30.52,10.0,Calm,Calm,-,N/A,,Scattered Clouds,0,2013-01-04 14:35:00
8:55 AM,39.2,35.4,86,30.53,10.0,Calm,Calm,-,N/A,,Mostly Cloudy,0,2013-01-04 14:55:00
9:15 AM,40.1,35.8,85,30.54,10.0,Calm,Calm,-,N/A,,Mostly Cloudy,0,2013-01-04 15:15:00
9:35 AM,40.3,35.1,82,30.54,10.0,Calm,Calm,-,N/A,Rain,Light Rain,0,2013-01-04 15:35:00
9:55 AM,41.0,36.1,83,30.53,10.0,Calm,Calm,-,N/A,Rain,Light Rain,0,2013-01-04 15:55:00
10:15 AM,41.4,35.6,80,30.53,10.0,Calm,Calm,-,N/A,,Mostly Cloudy,0,2013-01-04 16:15:00
10:35 AM,42.3,35.2,76,30.53,10.0,Calm,Calm,-,N/A,Rain,Light Rain,0,2013-01-04 16:35:00
10:55 AM,43.7,35.6,73,30.53,10.0,Calm,Calm,-,N/A,,Mostly Cloudy,0,2013-01-04 16:55:00
11:15 AM,44.4,34.7,69,30.52,10.0,Calm,Calm,-,N/A,,Mostly Cloudy,0,2013-01-04 17:15:00
11:35 AM,46.4,34.0,62,30.50,10.0,NNE,3.5,-,N/A,,Mostly Cloudy,30,2013-01-04 17:35:00
11:55 AM,46.6,32.7,59,30.49,10.0,NNW,3.5,-,N/A,,Overcast,330,2013-01-04 17:55:00
12:15 PM,47.7,30.6,52,30.48,10.0,North,4.6,-,N/A,,Overcast,360,2013-01-04 18:15:00
12:35 PM,47.8,31.6,53,30.47,10.0,North,4.6,-,N/A,,Mostly Cloudy,350,2013-01-04 18:35:00
12:55 PM,49.1,30.4,49,30.45,10.0,North,4.6,-,N/A,,Mostly Cloudy,360,2013-01-04 18:55:00
1:15 PM,49.5,30.9,49,30.45,10.0,NNW,5.8,-,N/A,,Overcast,330,2013-01-04 19:15:00
1:35 PM,50.5,29.5,44,30.44,10.0,North,8.1,-,N/A,,Overcast,350,2013-01-04 19:35:00
1:55 PM,50.9,29.5,44,30.42,10.0,Calm,Calm,-,N/A,,Overcast,0,2013-01-04 19:55:00
2:15 PM,50.7,28.6,42,30.42,10.0,NW,6.9,-,N/A,,Overcast,320,2013-01-04 20:15:00
2:35 PM,50.5,28.6,43,30.42,10.0,NNW,3.5,-,N/A,,Overcast,330,2013-01-04 20:35:00
2:55 PM,51.1,26.8,39,30.41,10.0,North,5.8,-,N/A,,Overcast,350,2013-01-04 20:55:00
3:15 PM,50.9,27.5,40,30.42,10.0,North,3.5,-,N/A,,Overcast,360,2013-01-04 21:15:00
3:35 PM,50.9,28.8,43,30.41,10.0,NE,3.5,-,N/A,,Overcast,40,2013-01-04 21:35:00
3:55 PM,50.7,27.7,41,30.41,10.0,North,4.6,-,N/A,,Overcast,360,2013-01-04 21:55:00
4:15 PM,50.7,28.9,43,30.41,10.0,North,4.6,-,N/A,,Overcast,10,2013-01-04 22:15:00
4:35 PM,50.0,29.1,45,30.41,10.0,Calm,Calm,-,N/A,,Overcast,0,2013-01-04 22:35:00
4:55 PM,49.6,30.2,47,30.41,10.0,Calm,Calm,-,N/A,,Overcast,0,2013-01-04 22:55:00
5:15 PM,49.3,32.4,52,30.42,10.0,Calm,Calm,-,N/A,,Overcast,0,2013-01-04 23:15:00
5:55 PM,47.5,36.1,65,30.42,10.0,Calm,Calm,-,N/A,,Overcast,0,2013-01-04 23:55:00
6:15 PM,46.6,34.5,63,30.42,10.0,Calm,Calm,-,N/A,,Overcast,0,2013-01-05 00:15:00
6:35 PM,46.2,36.0,67,30.41,10.0,Calm,Calm,-,N/A,,Overcast,0,2013-01-05 00:35:00
6:55 PM,45.5,34.3,65,30.41,10.0,Calm,Calm,-,N/A,,Mostly Cloudy,0,2013-01-05 00:55:00
7:15 PM,44.2,35.1,70,30.42,10.0,Calm,Calm,-,N/A,,Scattered Clouds,0,2013-01-05 01:15:00
7:35 PM,43.3,35.2,73,30.41,10.0,Calm,Calm,-,N/A,,Clear,0,2013-01-05 01:35:00
7:55 PM,42.6,34.0,71,30.42,10.0,Calm,Calm,-,N/A,,Clear,0,2013-01-05 01:55:00
8:15 PM,41.4,36.7,83,30.42,10.0,Calm,Calm,-,N/A,,Clear,0,2013-01-05 02:15:00
8:35 PM,41.0,37.4,87,30.41,10.0,Calm,Calm,-,N/A,,Clear,0,2013-01-05 02:35:00
8:55 PM,40.3,36.5,86,30.42,10.0,Calm,Calm,-,N/A,,Clear,0,2013-01-05 02:55:00
9:15 PM,39.7,36.1,87,30.42,10.0,Calm,Calm,-,N/A,,Clear,0,2013-01-05 03:15:00
9:55 PM,38.5,35.1,87,30.42,10.0,Calm,Calm,-,N/A,,Clear,0,2013-01-05 03:55:00
10:15 PM,38.7,36.0,90,30.40,10.0,East,3.5,-,N/A,,Mostly Cloudy,100,2013-01-05 04:15:00
10:35 PM,39.6,36.5,89,30.40,10.0,Calm,Calm,-,N/A,,Overcast,0,2013-01-05 04:35:00
10:55 PM,40.8,36.9,86,30.39,10.0,Calm,Calm,-,N/A,,Overcast,0,2013-01-05 04:55:00
11:15 PM,41.5,37.6,86,30.39,10.0,Calm,Calm,-,N/A,,Overcast,0,2013-01-05 05:15:00
11:35 PM,41.4,37.2,85,30.39,10.0,Calm,Calm,-,N/A,,Overcast,0,2013-01-05 05:35:00
11:55 PM,41.9,37.6,85,30.38,10.0,Calm,Calm,-,N/A,,Overcast,0,2013-01-05 05:55:00